Weather History for Gadsden, AL

Change the Weather History Date:

Friday, February 22, 2013

  Actual Average Record
Temperature  
Mean Temperature 47 °F -  
Max Temperature 50 °F 55 °F 76 °F (1944)
Min Temperature 44 °F 35 °F 19 °F (1947)
Degree Days  
Heating Degree Days 18    
Moisture  
Dew Point 44 °F    
Average Humidity 90    
Maximum Humidity 93    
Minimum Humidity 82    
Precipitation  
Precipitation 0.39 in - - ()
Sea Level Pressure  
Sea Level Pressure 30.03 in    
Wind  
Wind Speed 9 mph (ENE)    
Max Wind Speed 14 mph    
Max Gust Speed -    
Visibility 8 miles    
Events      
Averages and records for this station are not official NWS values.
T = Trace of Precipitation, MM = Missing Value Source: NWS Daily Summary

Daily Weather History Graph

Daily Weather History Graph

Search for Another Location

Airport:

Trip Planner

Search our weather history database for the weather conditions in past years. The results will help you decide how hot, cold, wet, or windy it might be!

Date:

Astronomy

Feb. 22, 2013 Rise Set
Actual Time 6:21 AM CST 5:34 PM CST
Civil Twilight 5:55 AM CST 6:00 PM CST
Nautical Twilight 5:26 AM CST 6:29 PM CST
Astronomical Twilight 4:57 AM CST 6:58 PM CST
Moon 2:50 PM CST (2/22) 4:00 AM CST (2/22)
Length of Visible Light 12h 04m
Length of Day
11h 13m
Waxing Gibbous, 90% of the Moon is Illuminated
Feb 22
Waxing Gibbous
Feb 25
Full
Mar 4
Last Quarter
Mar 11
New
Mar 19
First Quarter

Hourly Weather History & Observations

Time (CST) Temp. Windchill Dew Point Humidity Pressure Visibility Wind Dir Wind Speed Gust Speed Precip Events Conditions
12:15 AM 46.4 °F 40.7 °F 44.6 °F 93% 29.97 in 8.0 mi East 12.7 mph - N/A   Overcast
12:55 AM 46.4 °F 43.5 °F 44.6 °F 93% 30.00 in 7.0 mi NE 5.8 mph - 0.12 in   Overcast
1:15 AM 46.4 °F 42.4 °F 44.6 °F 93% 29.99 in 5.0 mi East 8.1 mph - 0.07 in   Overcast
1:35 AM 46.4 °F 42.9 °F 44.6 °F 93% 29.98 in 7.0 mi ENE 6.9 mph - 0.09 in   Overcast
1:55 AM 46.4 °F 43.5 °F 44.6 °F 93% 29.99 in 8.0 mi ENE 5.8 mph - 0.10 in   Overcast
2:15 AM 46.4 °F 42.4 °F 44.6 °F 93% 29.99 in 4.0 mi ENE 8.1 mph - 0.01 in   Overcast
2:35 AM 46.4 °F 42.4 °F 44.6 °F 93% 29.98 in 7.0 mi ENE 8.1 mph - 0.02 in   Overcast
2:55 AM 46.4 °F 41.5 °F 44.6 °F 93% 29.99 in 8.0 mi ENE 10.4 mph - 0.02 in   Overcast
3:15 AM 46.4 °F 42.4 °F 44.6 °F 93% 29.98 in 8.0 mi ENE 8.1 mph - N/A   Overcast
3:35 AM 46.4 °F 41.5 °F 44.6 °F 93% 29.97 in 7.0 mi East 10.4 mph - N/A   Overcast
4:15 AM 46.4 °F 41.9 °F 44.6 °F 93% 30.00 in 10.0 mi East 9.2 mph - N/A   Overcast
4:35 AM 46.4 °F 41.9 °F 44.6 °F 93% 30.00 in 10.0 mi ENE 9.2 mph - N/A   Overcast
4:55 AM 46.4 °F 42.4 °F 44.6 °F 93% 30.02 in 10.0 mi ENE 8.1 mph - N/A   Overcast
5:15 AM 46.4 °F 42.9 °F 44.6 °F 93% 30.03 in 7.0 mi NE 6.9 mph - N/A   Overcast
5:35 AM 46.4 °F 42.4 °F 44.6 °F 93% 30.03 in 7.0 mi ENE 8.1 mph - N/A   Overcast
5:55 AM 46.4 °F 42.4 °F 44.6 °F 93% 30.03 in 5.0 mi East 8.1 mph - N/A   Overcast
6:15 AM 46.4 °F 42.9 °F 44.6 °F 93% 30.03 in 9.0 mi ENE 6.9 mph - N/A   Overcast
6:35 AM 46.4 °F 42.4 °F 44.6 °F 93% 30.04 in 8.0 mi ENE 8.1 mph - N/A   Overcast
6:55 AM 46.4 °F 43.5 °F 44.6 °F 93% 30.05 in 7.0 mi NE 5.8 mph - N/A   Overcast
7:35 AM 46.4 °F 42.4 °F 44.6 °F 93% 30.06 in 9.0 mi ENE 8.1 mph - N/A   Overcast
8:15 AM 46.4 °F 41.5 °F 44.6 °F 93% 30.06 in 8.0 mi ENE 10.4 mph - N/A   Overcast
8:35 AM 48.2 °F - 44.6 °F 87% 30.07 in 8.0 mi ENE 8.1 mph - N/A   Overcast
8:55 AM 48.2 °F - 44.6 °F 87% 30.07 in 10.0 mi ENE 10.4 mph - N/A   Overcast
9:15 AM 48.2 °F - 44.6 °F 87% 30.08 in 10.0 mi ENE 8.1 mph - N/A   Overcast
9:35 AM 48.2 °F - 44.6 °F 87% 30.08 in 10.0 mi East 9.2 mph - N/A   Overcast
9:55 AM 48.2 °F - 44.6 °F 87% 30.08 in 10.0 mi East 10.4 mph - N/A   Overcast
10:15 AM 48.2 °F - 44.6 °F 87% 30.09 in 10.0 mi East 8.1 mph - N/A   Overcast
10:35 AM 48.2 °F - 44.6 °F 87% 30.09 in 10.0 mi ENE 10.4 mph - N/A   Overcast
10:55 AM 48.2 °F - 44.6 °F 87% 30.10 in 10.0 mi East 8.1 mph - N/A   Overcast
11:15 AM 48.2 °F - 44.6 °F 87% 30.09 in 10.0 mi ENE 9.2 mph - N/A   Overcast
11:35 AM 48.2 °F - 44.6 °F 87% 30.08 in 10.0 mi ENE 10.4 mph - N/A   Overcast
11:55 AM 48.2 °F - 44.6 °F 87% 30.08 in 10.0 mi ENE 9.2 mph - N/A   Overcast
12:15 PM 48.2 °F - 44.6 °F 87% 30.07 in 10.0 mi ENE 8.1 mph - N/A   Overcast
12:35 PM 50.0 °F - 44.6 °F 82% 30.07 in 10.0 mi ENE 6.9 mph - N/A   Overcast
12:55 PM 50.0 °F - 44.6 °F 82% 30.06 in 10.0 mi NE 9.2 mph - N/A   Overcast
1:15 PM 50.0 °F - 44.6 °F 82% 30.06 in 10.0 mi NE 9.2 mph - N/A   Overcast
1:35 PM 50.0 °F - 44.6 °F 82% 30.05 in 10.0 mi NE 11.5 mph - N/A   Overcast
1:55 PM 48.2 °F - 44.6 °F 87% 30.04 in 6.0 mi NE 10.4 mph - N/A   Overcast
2:15 PM 48.2 °F - 44.6 °F 87% 30.03 in 8.0 mi East 9.2 mph - N/A   Overcast
2:35 PM 48.2 °F - 44.6 °F 87% 30.02 in 9.0 mi ENE 10.4 mph - N/A   Overcast
2:55 PM 48.2 °F - 44.6 °F 87% 30.01 in 9.0 mi NE 10.4 mph - N/A   Overcast
3:15 PM 48.2 °F - 44.6 °F 87% 30.01 in 10.0 mi NE 10.4 mph - N/A   Overcast
3:35 PM 48.2 °F - 44.6 °F 87% 30.02 in 9.0 mi NE 10.4 mph - N/A   Overcast
3:55 PM 48.2 °F - 44.6 °F 87% 30.04 in 9.0 mi NE 9.2 mph - N/A   Overcast
4:15 PM 46.4 °F 42.4 °F 42.8 °F 87% 30.05 in 4.0 mi NE 8.1 mph - N/A   Overcast
4:35 PM 46.4 °F 41.9 °F 42.8 °F 87% 30.03 in 1.8 mi NE 9.2 mph - N/A   Overcast
4:55 PM 46.4 °F 42.4 °F 42.8 °F 87% 30.04 in 2.0 mi NE 8.1 mph - N/A   Overcast
5:15 PM 46.4 °F 43.5 °F 42.8 °F 87% 30.06 in 2.0 mi NE 5.8 mph - N/A   Overcast
5:35 PM 46.4 °F 41.9 °F 42.8 °F 87% 30.05 in 1.8 mi ENE 9.2 mph - N/A   Overcast
5:55 PM 46.4 °F 41.9 °F 42.8 °F 87% 30.04 in 3.0 mi ENE 9.2 mph - N/A   Overcast
6:15 PM 46.4 °F 40.7 °F 42.8 °F 87% 30.00 in 3.0 mi ENE 12.7 mph - N/A   Overcast
6:35 PM 44.6 °F 38.1 °F 42.8 °F 93% 29.98 in 3.0 mi ENE 13.8 mph - N/A   Overcast
6:55 PM 44.6 °F 41.4 °F 42.8 °F 93% 30.02 in 4.0 mi NE 5.8 mph - N/A   Overcast
7:16 PM 44.6 °F 39.7 °F 42.8 °F 93% 30.02 in 4.0 mi NE 9.2 mph - 0.01 in   Overcast
7:35 PM 44.6 °F 41.4 °F 42.8 °F 93% 30.06 in 7.0 mi North 5.8 mph - 0.02 in   Overcast
7:55 PM 44.6 °F - 42.8 °F 93% 30.08 in 8.0 mi Calm Calm - 0.02 in   Overcast
8:15 PM 44.6 °F 42.2 °F 42.8 °F 93% 30.08 in 6.0 mi East 4.6 mph - 0.02 in   Overcast
8:35 PM 44.6 °F 40.2 °F 42.8 °F 93% 30.06 in 7.0 mi East 8.1 mph - 0.03 in   Overcast
8:55 PM 44.6 °F 39.7 °F 42.8 °F 93% 30.06 in 9.0 mi East 9.2 mph - 0.03 in   Overcast
9:15 PM 44.6 °F 40.2 °F 42.8 °F 93% 30.04 in 10.0 mi ENE 8.1 mph - N/A   Overcast
9:35 PM 44.6 °F 40.7 °F 42.8 °F 93% 30.04 in 10.0 mi East 6.9 mph - 0.01 in   Overcast
9:55 PM 44.6 °F 40.2 °F 42.8 °F 93% 30.02 in 10.0 mi ENE 8.1 mph - 0.01 in   Overcast
10:15 PM 44.6 °F 38.4 °F 42.8 °F 93% 30.00 in 7.0 mi ENE 12.7 mph - N/A   Overcast
10:35 PM 44.6 °F 40.7 °F 42.8 °F 93% 30.03 in 10.0 mi NNE 6.9 mph - N/A   Overcast
10:55 PM 44.6 °F 39.2 °F 41.0 °F 87% 30.00 in 10.0 mi ENE 10.4 mph - N/A   Overcast
11:35 PM 44.6 °F 40.2 °F 42.8 °F 93% 30.01 in 5.0 mi NE 8.1 mph - 0.04 in   Partly Cloudy
11:55 PM 44.6 °F 40.2 °F 42.8 °F 93% 29.99 in 6.0 mi ENE 8.1 mph - 0.09 in   Clear